Regional Weather Roundup
Issued by NWS

Home | Current Version | Previous Version | Graphics & Text | Print | Product List | Glossary Off
Versions: 1 2 3 4 5 6 7 8 9 10 11 12 13 14 15 16 17 18 19 20 21 22 23 24 25 26 27 28 29 30 31 32 33 34 35 36 37 38 39 40 41 42 43 44 45 46 47 48 49 50

000
ASUS43 KDTX 020710
RWRMI
MICHIGAN HOURLY REGIONAL WEATHER ROUNDUP
NATIONAL WEATHER SERVICE DETROIT/PONTIAC MI
300 AM EDT MON MAY 02 2016

NOTE: "FAIR" INDICATES FEW OR NO CLOUDS BELOW 12,000 FEET WITH NO
SIGNIFICANT WEATHER AND/OR OBSTRUCTION TO VISIBILITY.

MIZ047>049-052>055-059>063-066>070-074>076-081>083-020800-
SOUTHEAST LOWER MICHIGAN

CITY           SKY/WX    TMP DP  RH WIND       PRES   REMARKS
ADRIAN         LGT RAIN  46  45  96 N10       29.96R
ALMA           LGT RAIN  42  39  90 NE6       30.02F
ANN ARBOR      LGT RAIN  46  44  93 N9        29.96R
BAD AXE        CLOUDY    42  39  90 NE3       30.02R
CARO           CLOUDY    44  41  87 CALM      30.03R
DETROIT CITY   RAIN      47  45  93 CALM      29.99F FOG
DETROIT        HVY RAIN  47  45  93 NE9       29.94F FOG
FLINT          RAIN      46  41  82 N8        30.01R
GROSSE ILE     RAIN      46  45  93 NE9       29.94F
HILLSDALE      DRIZZLE   44  44 100 N6        29.97S
HOWELL         LGT RAIN  43  42  97 N7        29.98F

CITY           SKY/WX    TMP DP  RH WIND       PRES   REMARKS
JACKSON        LGT RAIN  44  32  62 N6        29.97S
LAMBERTVILLE   LGT RAIN  49  47  93 E6        29.93F
LANSING        RAIN      42  41  96 NE7       30.01F
LAPEER         RAIN      44  42  94 CALM      30.02R
MASON          LGT RAIN  42  40  95 N6        29.98F
MONROE         LGT RAIN  47  47  98 E5        29.94F
MT. CLEMENS    LGT RAIN  46  46 100 E5        29.98S FOG
PONTIAC        CLOUDY    44  43  96 N9        29.97F FOG
PORT HOPE        N/A     41  39  93 NE10      30.00S
PORT HURON     RAIN      45  45 100 CALM      30.01R
TRI CITIES     CLOUDY    46  40  79 NE6       30.05R
MIDLAND        CLOUDY    42  36  78 CALM      30.05R
TROY           MIX PCPN  46  45  95 NE5       30.00F
SAGINAW HB     CLOUDY    45  39  81 N5        30.04R
$$
MIZ043>046-050>051-056>058-064>065-071>073-077>080-020800-
SOUTHWEST LOWER MICHIGAN

CITY           SKY/WX    TMP DP  RH WIND       PRES   REMARKS
BATTLE CREEK   CLOUDY    43  41  93 NE10      29.96F
BENTON HARBOR  MOCLDY    45  42  89 VRB6      29.99R
BIG RAPIDS     CLOUDY    42  33  69 N3        30.03F
COLDWATER      DRIZZLE   45  44  97 NE9       29.95F
FREMONT        CLOUDY    45  34  65 NE6       30.03F
HOLLAND        LGT RAIN N/A N/A N/A NE6       30.02S
GRAND RAPIDS   LGT RAIN  44  41  89 NE10      30.01F
IONIA          DRIZZLE   42  40  95 N7        30.02R
KALAMAZOO      CLOUDY    44  40  85 NE7       29.97F
LUDINGTON      CLOUDY    42  40  94 CALM      30.07S
MARSHALL       DRIZZLE   43  42  95 NE3       29.98F
MOUNT PLEASANT CLOUDY    42  36  78 NE6       30.01F
MUSKEGON       CLOUDY    47  34  60 NE7       30.04R
SOUTH HAVEN    CLOUDY    44  43  97 NE8       29.99S
$$
MIZ016>042-020800-
NORTHERN LOWER MICHIGAN

CITY           SKY/WX    TMP DP  RH WIND       PRES   REMARKS
ALPENA         PTCLDY    35  32  88 CALM      30.07S
BEAVER ISLAND  CLEAR     35  30  84 CALM      30.06F
BELLAIRE       CLEAR     34  32  93 CALM      30.07S
CADILLAC       PTCLDY    34  30  87 CALM      30.05S
CHARLEVOIX     CLEAR     38  33  85 CALM      30.09S
FRANKFORT      CLEAR     40  33  76 CALM      30.06F
GAYLORD        CLEAR     34  29  82 CALM      30.05S
GRAYLING       CLEAR     30  30 100 CALM      30.06F
HARBOR SPRINGS CLEAR     39  32  76 N3        30.06F
HOUGHTON LAKE  MOCLDY    37  31  78 CALM      30.05S
MANISTEE       CLEAR     39  34  81 CALM      30.07S
OSCODA         CLEAR     38  35  89 N9        30.02F WCI  31
PELLSTON       CLEAR     33  31  92 CALM      30.07S
ROGERS CITY    CLEAR     33  30  88 CALM      30.07F
TRAVERSE CITY  CLEAR     36  33  89 CALM      30.06S
$$
MIZ007>008-015-020800-
EASTERN UPPER MICHIGAN

CITY           SKY/WX    TMP DP  RH WIND       PRES   REMARKS
KINROSS          N/A     45  36  70 SE3       30.06S
MACKINAC ISLAN PTCLDY    45  32  61 S6        30.06S
NEWBERRY       CLOUDY    41  34  75 NW6       30.06F
S. S. MARIE    CLOUDY    49  34  56 SE6       30.06S
MUNISING         N/A     32  29  88 S6        30.10F WCI  26
$$
MIZ004>006-011>014-085-020800-
CENTRAL UPPER MICHIGAN

CITY           SKY/WX    TMP DP  RH WIND       PRES   REMARKS
MANISTIQUE     CLEAR     35  32  90 N7        30.06F WCI  29
ESCANABA       CLEAR     39  32  75 N3        30.09S
MENOMINEE      CLEAR     41  30  65 N6        30.10S
SAWYER-GWINN   CLEAR     31  28  88 N7        30.08F WCI  24
$$
MIZ001>003-009>011-084-020800-
WESTERN UPPER MICHIGAN

CITY           SKY/WX    TMP DP  RH WIND       PRES   REMARKS
IRON MOUNTAIN  CLEAR     32  26  78 CALM      30.09F
HOUGHTON       CLEAR     35  30  82 NW3       30.11F
COPPER HARBOR    N/A     34  32  92 W3        30.12F
IRONWOOD         N/A     30  30 100 CALM      30.11S
$$

ABBREVIATIONS USED IN REMARKS
   TC - TEMPERATURE IN CELSIUS
  WCI - WIND CHILL INDEX
   HX - HEAT INDEX
  VSB - VISIBILITY




USA.gov is the U.S. government's official web portal to all federal, state and local government web resources and services.